"2020/01/01",1021.8,1024.4,1019.8
"2020/01/02",1022.0,1024.3,1020.2
"2020/01/03",1017.1,1020.4,1014.7
"2020/01/04",1015.1,1017.3,1013.6
"2020/01/05",1021.8,1026.8,1015.7
"2020/01/06",1026.4,1028.1,1024.8
"2020/01/07",1025.7,1028.4,1019.7
"2020/01/08",1004.6,1019.8, 996.4
"2020/01/09",1009.1,1014.0, 998.5
"2020/01/10",1016.8,1019.5,1013.2
"2020/01/11",1016.2,1020.0,1013.1
"2020/01/12",1011.9,1014.3,1009.4
"2020/01/13",1012.3,1017.7,1009.0
"2020/01/14",1020.2,1022.0,1017.2
"2020/01/15",1016.9,1020.6,1013.4
"2020/01/16",1022.2,1024.1,1020.4
"2020/01/17",1020.0,1022.4,1017.1
"2020/01/18",1013.7,1017.1,1011.2
"2020/01/19",1015.4,1017.6,1013.0
"2020/01/20",1012.8,1014.4,1011.6
"2020/01/21",1020.7,1029.6,1012.2
"2020/01/22",1029.0,1032.3,1026.0
"2020/01/23",1022.0,1026.0,1018.4
"2020/01/24",1022.6,1026.3,1019.2
"2020/01/25",1028.7,1030.4,1026.0
"2020/01/26",1027.5,1029.4,1025.7
"2020/01/27",1026.8,1029.6,1022.7
"2020/01/28",1018.1,1024.0,1011.1
"2020/01/29",1002.5,1011.2,1000.3
"2020/01/30", 999.3,1001.2, 996.8
"2020/01/31",1005.0,1011.1,1000.9
"2020/02/01",1015.0,1019.5,1011.1
"2020/02/02",1022.4,1024.4,1019.2
"2020/02/03",1018.3,1023.3,1014.4
"2020/02/04",1020.6,1023.6,1016.9
"2020/02/05",1013.2,1017.6,1008.2
"2020/02/06",1023.6,1030.5,1017.6
"2020/02/07",1027.1,1031.4,1020.0
"2020/02/08",1014.7,1020.0,1011.5
"2020/02/09",1017.1,1018.6,1014.4
"2020/02/10",1015.7,1018.5,1013.0
"2020/02/11",1026.5,1030.8,1018.5
"2020/02/12",1026.3,1030.4,1021.2
"2020/02/13",1015.9,1021.2,1011.6
"2020/02/14",1019.3,1021.8,1016.7
"2020/02/15",1021.0,1023.5,1018.5
"2020/02/16",1010.3,1018.9,1000.4
"2020/02/17",1002.0,1004.3, 999.5
"2020/02/18",1011.6,1020.9,1004.1
"2020/02/19",1025.6,1028.8,1020.7
"2020/02/20",1029.7,1033.2,1027.7
"2020/02/21",1034.8,1037.9,1031.9
"2020/02/22",1020.9,1032.0,1011.0
"2020/02/23",1016.2,1021.9,1011.9
"2020/02/24",1022.1,1024.4,1020.3
"2020/02/25",1020.5,1023.4,1016.4
"2020/02/26",1015.5,1016.6,1014.2
"2020/02/27",1018.7,1023.6,1015.3
"2020/02/28",1024.1,1025.9,1022.6
"2020/02/29",1019.3,1023.0,1016.0
"2020/03/01",1016.8,1020.7,1014.6
"2020/03/02",1017.3,1020.0,1014.6
"2020/03/03",1021.4,1025.9,1017.0
"2020/03/04",1019.6,1025.2,1009.1
"2020/03/05",1006.9,1013.3,1003.1
"2020/03/06",1017.9,1022.5,1013.2
"2020/03/07",1024.2,1026.4,1022.4
"2020/03/08",1019.5,1023.0,1016.5
"2020/03/09",1017.6,1019.4,1015.8
"2020/03/10",1004.7,1016.1, 991.5
"2020/03/11",1000.3,1011.6, 991.7
"2020/03/12",1020.7,1024.6,1011.6
"2020/03/13",1016.7,1022.8,1012.0
"2020/03/14",1010.1,1014.1,1005.6
"2020/03/15",1006.8,1009.1,1004.2
"2020/03/16",1006.9,1017.1,1002.3
"2020/03/17",1016.3,1020.5,1010.9
"2020/03/18",1013.6,1016.3,1011.0
"2020/03/19",1011.0,1016.0,1000.1
"2020/03/20",1003.1,1011.3, 995.1
"2020/03/21",1011.9,1014.7,1009.2
"2020/03/22",1008.0,1012.8,1003.7
"2020/03/23",1011.3,1013.1,1009.0
"2020/03/24",1015.3,1020.0,1011.4
"2020/03/25",1021.6,1023.5,1020.0
"2020/03/26",1021.9,1023.9,1019.8
"2020/03/27",1016.8,1022.2,1011.5
"2020/03/28",1013.0,1019.4,1009.2
"2020/03/29",1020.3,1023.1,1017.2
"2020/03/30",1023.9,1026.0,1021.7
"2020/03/31",1023.5,1025.7,1020.8
"2020/04/01",1007.9,1020.9, 991.9
"2020/04/02",1006.4,1019.1, 992.4
"2020/04/03",1021.0,1023.6,1018.9
"2020/04/04",1014.7,1019.9,1010.4
"2020/04/05",1012.4,1015.3,1009.9
"2020/04/06",1014.7,1016.3,1013.1
"2020/04/07",1014.8,1016.1,1013.0
"2020/04/08",1013.6,1015.3,1011.9
"2020/04/09",1015.6,1018.2,1012.6
"2020/04/10","  * ","  * ","  * "
"2020/04/11","  * ","  * ","  * "
"2020/04/12","  * ","  * ","  * "
"2020/04/13", 990.6, 995.9, 985.8
"2020/04/14",1005.2,1013.1, 995.8
"2020/04/15",1013.0,1015.5,1010.7
"2020/04/16",1018.6,1025.2,1011.8
"2020/04/17",1025.7,1027.7,1023.6
"2020/04/18",1011.4,1023.6,1000.8
"2020/04/19",1013.2,1021.5,1004.0
"2020/04/20",1012.7,1020.6,1005.9
"2020/04/21",1007.9,1010.6,1005.6
"2020/04/22",1005.5,1009.3,1002.9
"2020/04/23",1008.2,1010.2,1005.6
"2020/04/24",1011.5,1015.1,1009.4
"2020/04/25",1018.1,1019.9,1014.3
"2020/04/26",1013.9,1017.3,1011.3
"2020/04/27",1017.5,1020.3,1014.9
"2020/04/28",1018.8,1020.3,1016.2
"2020/04/29",1019.4,1021.2,1016.6
"2020/04/30",1020.1,1023.0,1017.5
"2020/05/01",1015.3,1017.6,1012.6
"2020/05/02",1013.5,1015.3,1010.6
"2020/05/03",1014.0,1015.7,1012.6
"2020/05/04",1009.6,1013.5,1005.9
"2020/05/05",1010.8,1016.3,1005.5
"2020/05/06",1013.0,1015.4,1010.3
"2020/05/07",1015.8,1021.6,1011.3
"2020/05/08",1022.6,1024.1,1021.1
"2020/05/09",1019.1,1022.5,1014.7
"2020/05/10",1006.8,1014.9,1000.6
"2020/05/11",1003.3,1007.5, 999.8
"2020/05/12",1006.8,1009.1,1004.8
"2020/05/13",1007.2,1014.5,1004.4
"2020/05/14",1017.2,1019.3,1014.4
"2020/05/15",1019.2,1020.7,1017.3
"2020/05/16",1012.3,1017.6,1004.6
"2020/05/17",1004.2,1008.6,1001.8
"2020/05/18",1009.8,1011.8,1006.7
"2020/05/19",1000.7,1006.8, 996.0
"2020/05/20",1008.6,1014.5,1003.1
"2020/05/21",1016.7,1019.9,1013.3
"2020/05/22",1018.7,1020.1,1017.1
"2020/05/23",1015.8,1017.2,1014.1
"2020/05/24",1015.8,1017.6,1014.2
"2020/05/25",1011.8,1014.2,1009.5
"2020/05/26",1009.4,1011.2,1006.7
"2020/05/27",1004.7,1006.8,1002.5
"2020/05/28",1008.7,1012.7,1005.3
"2020/05/29",1014.4,1018.7,1012.0
"2020/05/30",1020.8,1022.1,1018.5
"2020/05/31",1020.2,1022.2,1017.4
"2020/06/01",1014.0,1017.6,1010.4
"2020/06/02",1008.4,1010.5,1007.0
"2020/06/03",1007.0,1008.1,1005.8
"2020/06/04",1007.0,1008.3,1005.7
"2020/06/05",1006.7,1008.0,1005.1
"2020/06/06",1008.2,1010.1,1006.7
"2020/06/07",1011.3,1015.0,1008.4
"2020/06/08",1017.8,1020.1,1014.6
"2020/06/09",1019.3,1020.4,1017.9
"2020/06/10",1016.2,1019.2,1012.5
"2020/06/11",1008.0,1012.5,1004.9
"2020/06/12",1005.7,1007.9,1003.9
"2020/06/13",1008.9,1012.0,1006.7
"2020/06/14",1006.6,1011.2, 999.0
"2020/06/15",1001.3,1003.0, 998.7
"2020/06/16",1001.8,1004.1, 999.5
"2020/06/17",1007.8,1010.1,1003.8
"2020/06/18",1008.5,1010.0,1006.2
"2020/06/19",1003.0,1006.2,1000.2
"2020/06/20",1008.1,1012.4,1003.1
"2020/06/21",1013.5,1014.7,1011.8
"2020/06/22",1009.8,1014.0,1006.0
"2020/06/23",1009.4,1012.4,1006.2
"2020/06/24",1014.9,1016.0,1014.0
"2020/06/25",1010.9,1014.7,1008.6
"2020/06/26",1006.1,1009.3,1003.4
"2020/06/27",1005.7,1007.1,1004.3
"2020/06/28",1002.3,1005.2, 998.7
"2020/06/29",1007.6,1010.2,1002.5
"2020/06/30",1006.4,1009.4,1002.5
"2020/07/01",1003.8,1007.1,1001.6
"2020/07/02",1007.3,1011.2,1004.3
"2020/07/03",1015.4,1017.3,1011.0
"2020/07/04",1006.9,1015.7,1003.7
"2020/07/05",1007.2,1009.4,1004.1
"2020/07/06",1009.8,1011.6,1008.8
"2020/07/07",1007.9,1009.5,1006.4
"2020/07/08",1006.2,1008.8,1002.2
"2020/07/09",1010.3,1013.2,1008.2
"2020/07/10",1012.1,1013.7,1009.9
"2020/07/11",1006.5,1010.0,1004.0
"2020/07/12",1005.4,1010.6,1003.3
"2020/07/13",1012.0,1013.6,1009.8
"2020/07/14",1004.0,1009.8, 999.6
"2020/07/15",1002.1,1005.9, 998.7
"2020/07/16",1008.4,1011.9,1005.1
"2020/07/17",1012.3,1014.6,1010.9
"2020/07/18",1012.9,1014.4,1011.4
"2020/07/19",1012.3,1013.7,1010.9
"2020/07/20",1013.3,1014.8,1012.3
"2020/07/21",1013.3,1015.2,1011.9
"2020/07/22",1010.1,1012.0,1008.3
"2020/07/23",1009.6,1010.6,1008.3
"2020/07/24",1011.0,1012.8,1009.3
"2020/07/25",1012.3,1014.6,1011.0
"2020/07/26",1015.1,1016.8,1013.7
"2020/07/27",1014.8,1015.9,1013.3
"2020/07/28",1011.2,1014.3,1008.1
"2020/07/29",1014.9,1017.7,1010.7
"2020/07/30",1017.1,1018.7,1015.8
"2020/07/31",1013.4,1015.9,1011.1
"2020/08/01",1013.3,1015.4,1011.6
"2020/08/02",1015.3,1016.4,1014.2
"2020/08/03",1015.2,1016.3,1013.6
"2020/08/04",1016.2,1017.6,1015.3
"2020/08/05",1017.5,1018.8,1015.7
"2020/08/06",1014.6,1017.6,1012.0
"2020/08/07",1009.2,1012.1,1007.0
"2020/08/08",1010.8,1012.8,1009.2
"2020/08/09",1010.9,1013.1,1009.6
"2020/08/10",1014.3,1015.5,1012.6
"2020/08/11",1013.7,1015.4,1011.8
"2020/08/12",1013.0,1014.7,1011.4
"2020/08/13",1010.2,1012.2,1007.8
"2020/08/14",1009.7,1010.9,1008.6
"2020/08/15",1008.1,1009.5,1006.1
"2020/08/16",1010.4,1012.5,1008.4
"2020/08/17",1011.2,1012.7,1009.3
"2020/08/18",1011.5,1013.2,1009.7
"2020/08/19",1012.4,1013.6,1010.6
"2020/08/20",1012.8,1013.8,1011.3
"2020/08/21",1013.5,1015.0,1012.2
"2020/08/22",1013.0,1014.8,1011.3
"2020/08/23",1010.2,1012.2,1008.5
"2020/08/24",1009.0,1011.1,1007.8
"2020/08/25",1011.8,1013.8,1010.2
"2020/08/26",1013.6,1014.5,1012.6
"2020/08/27",1013.7,1014.9,1012.1
"2020/08/28",1013.3,1014.7,1011.6
"2020/08/29",1011.8,1013.3,1009.7
"2020/08/30",1011.2,1012.4,1009.2
"2020/08/31",1012.8,1014.9,1010.6
"2020/09/01",1014.1,1014.9,1013.2
"2020/09/02",1014.4,1015.3,1013.0
"2020/09/03",1013.4,1014.8,1011.6
"2020/09/04",1014.6,1016.9,1013.0
"2020/09/05",1014.2,1015.2,1012.7
"2020/09/06",1014.6,1015.5,1013.4
"2020/09/07",1014.9,1015.9,1013.4
"2020/09/08",1016.0,1017.7,1014.8
"2020/09/09",1014.4,1016.4,1012.3
"2020/09/10",1012.8,1014.1,1011.7
"2020/09/11",1016.0,1018.1,1013.5
"2020/09/12",1015.4,1018.2,1012.0
"2020/09/13",1012.4,1013.4,1011.2
"2020/09/14",1012.3,1014.2,1011.2
"2020/09/15",1015.0,1016.4,1013.8
"2020/09/16",1015.2,1016.9,1013.6
"2020/09/17",1013.2,1015.2,1011.0
"2020/09/18",1008.3,1011.1,1006.0
"2020/09/19",1012.6,1014.8,1009.9
"2020/09/20",1014.9,1016.4,1013.2
"2020/09/21",1015.7,1018.7,1012.4
"2020/09/22",1018.5,1019.5,1017.5
"2020/09/23",1015.8,1017.7,1014.2
"2020/09/24",1014.1,1015.3,1012.6
"2020/09/25",1007.2,1013.1,1002.5
"2020/09/26",1009.1,1011.4,1006.1
"2020/09/27",1010.8,1012.0,1009.5
"2020/09/28",1013.6,1016.3,1011.7
"2020/09/29",1013.0,1015.8,1009.5
"2020/09/30",1009.0,1011.0,1006.9
"2020/10/01",1011.8,1014.9,1009.7
"2020/10/02",1017.6,1020.1,1014.6
"2020/10/03",1018.3,1020.1,1015.9
"2020/10/04",1013.6,1017.5,1009.2
"2020/10/05",1007.7,1011.5,1004.8
"2020/10/06",1016.7,1022.0,1011.4
"2020/10/07",1025.2,1027.9,1021.8
"2020/10/08",1026.8,1028.6,1025.0
"2020/10/09",1026.1,1027.9,1023.9
"2020/10/10",1018.5,1024.1,1014.0
"2020/10/11",1012.1,1014.1,1010.0
"2020/10/12",1011.6,1013.3,1009.9
"2020/10/13",1013.2,1017.7,1009.6
"2020/10/14",1019.0,1020.7,1017.0
"2020/10/15",1020.9,1023.1,1018.7
"2020/10/16",1022.2,1024.5,1020.0
"2020/10/17",1022.3,1023.9,1020.0
"2020/10/18",1022.7,1023.9,1021.6
"2020/10/19",1023.5,1025.1,1022.3
"2020/10/20",1025.7,1027.1,1024.3
"2020/10/21",1026.1,1028.7,1023.2
"2020/10/22",1019.1,1023.2,1012.7
"2020/10/23",1004.3,1012.8, 999.9
"2020/10/24",1006.4,1009.5,1002.8
"2020/10/25",1013.1,1016.2,1009.3
"2020/10/26",1017.2,1018.8,1015.8
"2020/10/27",1020.3,1021.7,1018.5
"2020/10/28",1020.3,1022.9,1017.1
"2020/10/29",1017.1,1018.7,1015.7
"2020/10/30",1019.6,1023.3,1017.6
"2020/10/31",1026.5,1029.1,1023.2
"2020/11/01",1026.5,1029.3,1023.4
"2020/11/02",1018.1,1023.6,1012.0
"2020/11/03",1008.1,1012.1,1004.8
"2020/11/04",1015.3,1021.6,1005.9
"2020/11/05",1025.0,1027.9,1021.2
"2020/11/06",1025.8,1028.8,1021.2
"2020/11/07",1016.2,1021.9,1009.9
"2020/11/08",1009.9,1011.8,1008.6
"2020/11/09",1014.1,1017.7,1009.5
"2020/11/10",1020.7,1024.1,1017.2
"2020/11/11",1027.6,1030.7,1024.0
"2020/11/12","  * ","  * ","  * "
"2020/11/13","  * ","  * ","  * "
"2020/11/14","  * ","  * ","  * "
"2020/11/15","  * ","  * ","  * "
"2020/11/16","  * ","  * ","  * "
"2020/11/17","  * ","  * ","  * "
"2020/11/18","  * ","  * ","  * "
"2020/11/19",1015.6,1017.6,1013.6
"2020/11/20",1008.5,1013.8,1004.7
"2020/11/21",1015.7,1024.9,1006.8
"2020/11/22",1019.7,1025.6,1011.4
"2020/11/23",1014.7,1021.4,1008.9
"2020/11/24",1025.2,1027.3,1021.3
"2020/11/25",1023.3,1026.6,1020.8
"2020/11/26",1021.9,1023.6,1020.6
"2020/11/27",1020.7,1024.1,1013.0
"2020/11/28",1014.2,1020.6,1009.0
"2020/11/29",1022.8,1024.5,1020.3
"2020/11/30",1024.4,1027.6,1022.3
"2020/12/01",1028.4,1030.2,1027.1
"2020/12/02",1026.7,1029.5,1022.4
"2020/12/03",1018.3,1022.6,1015.6
"2020/12/04",1023.4,1027.0,1018.3
"2020/12/05",1025.4,1026.8,1023.6
"2020/12/06",1024.8,1026.5,1023.4
"2020/12/07",1020.8,1023.7,1017.0
"2020/12/08",1018.3,1021.7,1015.8
"2020/12/09",1024.2,1026.3,1021.2
"2020/12/10",1019.9,1024.4,1015.7
"2020/12/11",1017.6,1020.0,1014.7
"2020/12/12",1009.2,1014.7,1005.2
"2020/12/13",1010.2,1012.8,1008.0
"2020/12/14",1006.5,1009.9,1004.4
"2020/12/15",1011.4,1013.4,1009.1
"2020/12/16",1012.9,1014.7,1010.8
"2020/12/17",1017.6,1020.3,1014.0
"2020/12/18",1018.5,1022.3,1013.5
"2020/12/19",1016.0,1018.1,1013.2
"2020/12/20",1020.4,1022.9,1017.5
"2020/12/21",1022.8,1025.0,1021.4
"2020/12/22",1023.0,1025.4,1020.2
"2020/12/23",1021.6,1023.7,1020.1
"2020/12/24",1013.5,1020.2,1006.7
"2020/12/25",1008.4,1015.2,1003.9
"2020/12/26",1019.6,1023.2,1014.8
"2020/12/27",1023.7,1025.3,1022.0
"2020/12/28",1019.7,1023.0,1016.4
"2020/12/29",1018.5,1024.1,1008.2
"2020/12/30", 996.4,1008.2, 987.0
